Time,TemperatureF,DewpointF,PressureIn,WindDirection,WindDirectionDegrees,WindSpeedMPH,WindSpeedGustMPH,Humidity,HourlyPrecipIn,Conditions,Clouds,dailyrainin,SoftwareType,DateUTC
2013-02-09 00:00:00,43.0,-99.9,30.27,WSW,250,4.0,-999.0,-999,-99.99,,,-99.99,,2013-02-09 08:00:00,
2013-02-09 00:32:00,43.0,-99.9,30.27,WSW,250,4.0,-999.0,-999,-99.99,,,-99.99,,2013-02-09 08:32:00,
2013-02-09 00:42:00,43.0,-99.9,30.27,WSW,250,4.0,-999.0,-999,-99.99,,,-99.99,,2013-02-09 08:42:00,
2013-02-09 00:52:00,43.0,-99.9,30.27,WSW,250,4.0,-999.0,-999,-99.99,,,-99.99,,2013-02-09 08:52:00,
2013-02-09 01:00:00,43.0,-99.9,30.27,South,190,4.0,-999.0,-999,-99.99,,,-99.99,,2013-02-09 09:00:00,
2013-02-09 01:32:00,43.0,-99.9,30.27,South,190,4.0,-999.0,-999,-99.99,,,-99.99,,2013-02-09 09:32:00,
2013-02-09 01:42:00,43.0,-99.9,30.27,South,190,4.0,-999.0,-999,-99.99,,,-99.99,,2013-02-09 09:42:00,
2013-02-09 01:52:00,43.0,-99.9,30.27,South,190,4.0,-999.0,-999,-99.99,,,-99.99,,2013-02-09 09:52:00,
2013-02-09 02:00:00,42.0,-99.9,30.27,SE,140,2.0,-999.0,-999,-99.99,,,-99.99,,2013-02-09 10:00:00,
2013-02-09 02:42:00,42.0,-99.9,30.27,SE,140,2.0,-999.0,-999,-99.99,,,-99.99,,2013-02-09 10:42:00,
2013-02-09 02:52:00,42.0,-99.9,30.27,SE,140,2.0,-999.0,-999,-99.99,,,-99.99,,2013-02-09 10:52:00,
2013-02-09 03:00:00,42.0,-99.9,30.26,SSE,160,4.0,-999.0,-999,-99.99,,,-99.99,,2013-02-09 11:00:00,
2013-02-09 03:42:00,42.0,-99.9,30.26,SSE,160,4.0,-999.0,-999,-99.99,,,-99.99,,2013-02-09 11:42:00,
2013-02-09 03:53:00,42.0,-99.9,30.26,SSE,160,4.0,-999.0,-999,-99.99,,,-99.99,,2013-02-09 11:53:00,
2013-02-09 04:00:00,42.0,-99.9,30.26,South,170,4.0,-999.0,-999,-99.99,,,-99.99,,2013-02-09 12:00:00,
2013-02-09 04:32:00,42.0,-99.9,30.26,South,170,4.0,-999.0,-999,-99.99,,,-99.99,,2013-02-09 12:32:00,
2013-02-09 04:42:00,42.0,-99.9,30.26,South,170,4.0,-999.0,-999,-99.99,,,-99.99,,2013-02-09 12:42:00,
2013-02-09 04:53:00,42.0,-99.9,30.26,South,170,4.0,-999.0,-999,-99.99,,,-99.99,,2013-02-09 12:53:00,
2013-02-09 05:00:00,43.0,-99.9,30.27,WSW,250,7.0,-999.0,-999,-99.99,,,-99.99,,2013-02-09 13:00:00,
2013-02-09 05:42:00,43.0,-99.9,30.27,WSW,250,7.0,-999.0,-999,-99.99,,,-99.99,,2013-02-09 13:42:00,
2013-02-09 05:52:00,43.0,-99.9,30.27,WSW,250,7.0,-999.0,-999,-99.99,,,-99.99,,2013-02-09 13:52:00,
2013-02-09 06:32:00,42.0,-99.9,30.26,South,170,2.0,-999.0,-999,-99.99,,,-99.99,,2013-02-09 14:32:00,
2013-02-09 06:42:00,42.0,-99.9,30.26,South,170,2.0,-999.0,-999,-99.99,,,-99.99,,2013-02-09 14:42:00,
2013-02-09 06:52:00,42.0,-99.9,30.26,South,170,2.0,-999.0,-999,-99.99,,,-99.99,,2013-02-09 14:52:00,
2013-02-09 07:00:00,42.0,-99.9,30.26,SW,230,4.0,-999.0,-999,-99.99,,,-99.99,,2013-02-09 15:00:00,
2013-02-09 07:02:00,42.0,-99.9,30.26,South,170,2.0,-999.0,-999,-99.99,,,-99.99,,2013-02-09 15:02:00,
2013-02-09 07:11:00,42.0,-99.9,30.26,South,170,2.0,-999.0,-999,-99.99,,,-99.99,,2013-02-09 15:11:00,
2013-02-09 07:42:00,42.0,-99.9,30.26,SW,230,4.0,-999.0,-999,-99.99,,,-99.99,,2013-02-09 15:42:00,
2013-02-09 07:52:00,42.0,-99.9,30.26,SW,230,4.0,-999.0,-999,-99.99,,,-99.99,,2013-02-09 15:52:00,
2013-02-09 08:00:00,42.0,-99.9,30.26,South,190,4.0,-999.0,-999,-99.99,,,-99.99,,2013-02-09 16:00:00,
2013-02-09 08:32:00,42.0,-99.9,30.26,South,190,4.0,-999.0,-999,-99.99,,,-99.99,,2013-02-09 16:32:00,
2013-02-09 08:42:00,42.0,-99.9,30.26,South,190,4.0,-999.0,-999,-99.99,,,-99.99,,2013-02-09 16:42:00,
2013-02-09 08:52:00,42.0,-99.9,30.26,South,190,4.0,-999.0,-999,-99.99,,,-99.99,,2013-02-09 16:52:00,
2013-02-09 09:00:00,43.0,-99.9,30.27,West,280,2.0,-999.0,-999,-99.99,,,-99.99,,2013-02-09 17:00:00,
2013-02-09 09:32:00,43.0,-99.9,30.27,West,280,2.0,-999.0,-999,-99.99,,,-99.99,,2013-02-09 17:32:00,
2013-02-09 09:42:00,43.0,-99.9,30.27,West,280,2.0,-999.0,-999,-99.99,,,-99.99,,2013-02-09 17:42:00,
2013-02-09 09:52:00,43.0,-99.9,30.27,West,280,2.0,-999.0,-999,-99.99,,,-99.99,,2013-02-09 17:52:00,
2013-02-09 10:00:00,43.0,-99.9,30.28,WNW,300,2.0,-999.0,-999,-99.99,,,-99.99,,2013-02-09 18:00:00,
2013-02-09 10:32:00,43.0,-99.9,30.28,WNW,300,2.0,-999.0,-999,-99.99,,,-99.99,,2013-02-09 18:32:00,
2013-02-09 10:42:00,43.0,-99.9,30.28,WNW,300,2.0,-999.0,-999,-99.99,,,-99.99,,2013-02-09 18:42:00,
2013-02-09 10:52:00,43.0,-99.9,30.28,WNW,300,2.0,-999.0,-999,-99.99,,,-99.99,,2013-02-09 18:52:00,
2013-02-09 11:00:00,43.0,-99.9,30.28,North,0,0.0,-999.0,-999,-99.99,,,-99.99,,2013-02-09 19:00:00,
2013-02-09 11:32:00,43.0,-99.9,30.28,North,0,0.0,-999.0,-999,-99.99,,,-99.99,,2013-02-09 19:32:00,
2013-02-09 11:42:00,43.0,-99.9,30.28,North,0,0.0,-999.0,-999,-99.99,,,-99.99,,2013-02-09 19:42:00,
2013-02-09 11:52:00,43.0,-99.9,30.28,North,0,0.0,-999.0,-999,-99.99,,,-99.99,,2013-02-09 19:52:00,
2013-02-09 12:00:00,43.0,-99.9,30.27,NNE,30,4.0,-999.0,-999,-99.99,,,-99.99,,2013-02-09 20:00:00,
2013-02-09 12:42:00,43.0,-99.9,30.27,NNE,30,4.0,-999.0,-999,-99.99,,,-99.99,,2013-02-09 20:42:00,
2013-02-09 12:52:00,43.0,-99.9,30.27,NNE,30,4.0,-999.0,-999,-99.99,,,-99.99,,2013-02-09 20:52:00,
2013-02-09 13:00:00,43.0,-99.9,30.27,ENE,60,4.0,-999.0,-999,-99.99,,,-99.99,,2013-02-09 21:00:00,
2013-02-09 13:32:00,43.0,-99.9,30.27,ENE,60,4.0,-999.0,-999,-99.99,,,-99.99,,2013-02-09 21:32:00,
2013-02-09 13:42:00,43.0,-99.9,30.27,ENE,60,4.0,-999.0,-999,-99.99,,,-99.99,,2013-02-09 21:42:00,
2013-02-09 13:52:00,43.0,-99.9,30.27,ENE,60,4.0,-999.0,-999,-99.99,,,-99.99,,2013-02-09 21:52:00,
2013-02-09 14:00:00,44.0,-99.9,30.27,NE,40,2.0,-999.0,-999,-99.99,,,-99.99,,2013-02-09 22:00:00,
2013-02-09 14:32:00,44.0,-99.9,30.27,NE,40,2.0,-999.0,-999,-99.99,,,-99.99,,2013-02-09 22:32:00,
2013-02-09 14:42:00,44.0,-99.9,30.27,NE,40,2.0,-999.0,-999,-99.99,,,-99.99,,2013-02-09 22:42:00,
2013-02-09 14:52:00,44.0,-99.9,30.27,NE,40,2.0,-999.0,-999,-99.99,,,-99.99,,2013-02-09 22:52:00,
2013-02-09 15:00:00,44.0,-99.9,30.28,North,350,2.0,-999.0,-999,-99.99,,,-99.99,,2013-02-09 23:00:00,
2013-02-09 15:42:00,44.0,-99.9,30.28,North,350,2.0,-999.0,-999,-99.99,,,-99.99,,2013-02-09 23:42:00,
2013-02-09 15:52:00,44.0,-99.9,30.28,North,350,2.0,-999.0,-999,-99.99,,,-99.99,,2013-02-09 23:52:00,
2013-02-09 16:00:00,44.0,-99.9,30.28,ENE,70,2.0,-999.0,-999,-99.99,,,-99.99,,2013-02-10 00:00:00,
2013-02-09 16:32:00,44.0,-99.9,30.28,ENE,70,2.0,-999.0,-999,-99.99,,,-99.99,,2013-02-10 00:32:00,
2013-02-09 16:42:00,44.0,-99.9,30.28,ENE,70,2.0,-999.0,-999,-99.99,,,-99.99,,2013-02-10 00:42:00,
2013-02-09 16:52:00,44.0,-99.9,30.28,ENE,70,2.0,-999.0,-999,-99.99,,,-99.99,,2013-02-10 00:52:00,
2013-02-09 17:00:00,44.0,-99.9,30.29,ENE,70,4.0,-999.0,-999,-99.99,,,-99.99,,2013-02-10 01:00:00,
2013-02-09 17:42:00,44.0,-99.9,30.29,ENE,70,4.0,-999.0,-999,-99.99,,,-99.99,,2013-02-10 01:42:00,
2013-02-09 17:52:00,44.0,-99.9,30.29,ENE,70,4.0,-999.0,-999,-99.99,,,-99.99,,2013-02-10 01:52:00,
2013-02-09 18:00:00,44.0,-99.9,30.30,NE,50,7.0,-999.0,-999,-99.99,,,-99.99,,2013-02-10 02:00:00,
2013-02-09 18:32:00,44.0,-99.9,30.30,NE,50,7.0,-999.0,-999,-99.99,,,-99.99,,2013-02-10 02:32:00,
2013-02-09 18:42:00,44.0,-99.9,30.30,NE,50,7.0,-999.0,-999,-99.99,,,-99.99,,2013-02-10 02:42:00,
2013-02-09 18:52:00,44.0,-99.9,30.30,NE,50,7.0,-999.0,-999,-99.99,,,-99.99,,2013-02-10 02:52:00,
2013-02-09 19:00:00,44.0,-99.9,30.30,ENE,70,9.0,-999.0,-999,-99.99,,,-99.99,,2013-02-10 03:00:00,
2013-02-09 19:32:00,44.0,-99.9,30.30,ENE,70,9.0,-999.0,-999,-99.99,,,-99.99,,2013-02-10 03:32:00,
2013-02-09 19:42:00,44.0,-99.9,30.30,ENE,70,9.0,-999.0,-999,-99.99,,,-99.99,,2013-02-10 03:42:00,
2013-02-09 19:52:00,44.0,-99.9,30.30,ENE,70,9.0,-999.0,-999,-99.99,,,-99.99,,2013-02-10 03:52:00,
2013-02-09 20:00:00,44.0,-99.9,30.31,East,80,7.0,-999.0,-999,-99.99,,,-99.99,,2013-02-10 04:00:00,
2013-02-09 20:32:00,44.0,-99.9,30.31,East,80,7.0,-999.0,-999,-99.99,,,-99.99,,2013-02-10 04:32:00,
2013-02-09 20:42:00,44.0,-99.9,30.31,East,80,7.0,-999.0,-999,-99.99,,,-99.99,,2013-02-10 04:42:00,
2013-02-09 20:52:00,44.0,-99.9,30.31,East,80,7.0,-999.0,-999,-99.99,,,-99.99,,2013-02-10 04:52:00,
2013-02-09 21:00:00,44.0,-99.9,30.32,SSE,150,9.0,-999.0,-999,-99.99,,,-99.99,,2013-02-10 05:00:00,
2013-02-09 21:42:00,44.0,-99.9,30.32,SSE,150,9.0,-999.0,-999,-99.99,,,-99.99,,2013-02-10 05:42:00,
2013-02-09 21:52:00,44.0,-99.9,30.32,SSE,150,9.0,-999.0,-999,-99.99,,,-99.99,,2013-02-10 05:52:00,
2013-02-09 22:00:00,44.0,-99.9,30.34,SSE,150,4.0,-999.0,-999,-99.99,,,-99.99,,2013-02-10 06:00:00,
2013-02-09 22:32:00,44.0,-99.9,30.34,SSE,150,4.0,-999.0,-999,-99.99,,,-99.99,,2013-02-10 06:32:00,
2013-02-09 22:42:00,44.0,-99.9,30.34,SSE,150,4.0,-999.0,-999,-99.99,,,-99.99,,2013-02-10 06:42:00,
2013-02-09 22:52:00,44.0,-99.9,30.34,SSE,150,4.0,-999.0,-999,-99.99,,,-99.99,,2013-02-10 06:52:00,
2013-02-09 23:00:00,44.0,-99.9,30.34,ESE,120,4.0,-999.0,-999,-99.99,,,-99.99,,2013-02-10 07:00:00,
2013-02-09 23:32:00,44.0,-99.9,30.34,ESE,120,4.0,-999.0,-999,-99.99,,,-99.99,,2013-02-10 07:32:00,
2013-02-09 23:42:00,44.0,-99.9,30.34,ESE,120,4.0,-999.0,-999,-99.99,,,-99.99,,2013-02-10 07:42:00,
2013-02-09 23:52:00,44.0,-99.9,30.34,ESE,120,4.0,-999.0,-999,-99.99,,,-99.99,,2013-02-10 07:52:00,